Weather in Puerto Plata

Dominican Republic     19°47′23″N   70°41′24″W
temp.,
°C
wind,
m/s
gust,
m/s
humid.,
%
clouds,
%
prec.,
mm/h
press.,
hPa
HPBL,
m
3 march, wed
wed323:00+18ese24950 0.0 1018205
02:00+17se23965 0.0 1017183
05:00+17sse249613 0.0 1017154
08:00+19se26899 0.0 1018317
11:00+27ese37480 0.0 10181153
14:00+31ese35340 0.0 10161331
17:00+30e35430 0.0 10151283
20:00+22se13780 0.0 101682
4 march, thu
thu423:00+20ssw22720 0.0 101764
02:00+19ssw22840 0.0 101646
05:00+19ssw22920 0.0 101646
08:00+21ssw11820 0.0 101753
11:00+30n12430 0.0 10171503
14:00+29nne444910 0.0 10141013
17:00+28ne234823 0.0 1013961
20:00+23nne017846 0.0 101442
5 march, fri
fri523:00+21wsw118276 0.0 101535
02:00+20ssw128738 0.0 101431
05:00+19ssw12860 0.0 101334
08:00+21ssw11740 0.0 101559
11:00+30e21400 0.0 10151734
14:00+28ne44509 0.0 1013778
17:00+26ne346031 0.0 1012607
20:00+21nne118816 0.1 101448
6 march, sat
sat623:00+20w01940 0.4 101567
02:00+20ssw22951 0.9 101445
05:00+19s22931 0.0 101439
08:00+20s12860 0.0 101581
11:00+30e24340 0.0 10161313
14:00+32e45350 0.0 10131708
17:00+29ene56547 0.0 1013956
20:00+22sse23856 0.1 101477
7 march, sun
sun723:00+21s258812 0.0 1015218
02:00+20s22937 0.0 101492
05:00+20s12961 0.0 101451
08:00+22s11833 0.0 101688
11:00+30nne22488 0.0 10181350
14:00+26ne236646 0.8 1015358
17:00+26n236478 0.1 1015712
20:00+22wsw129189 0.8 101780